Regional Weather Roundup
Issued by NWS

Home | Current Version | Previous Version | Graphics & Text | Print | Product List | Glossary On
Versions: 1 2 3 4 5 6 7 8 9 10 11 12 13 14 15 16 17 18 19 20 21 22 23 24 25 26 27 28 29 30 31 32 33 34 35 36 37 38 39 40 41 42 43 44 45 46 47 48 49 50
780
ASUS43 KLSX 040707
RWRMO

WEATHER SUMMARY FOR MISSOURI
NATIONAL WEATHER SERVICE SPRINGFIELD MO
100 AM CST SUN DEC 04 2016

NOTE: "FAIR" INDICATES FEW OR NO CLOUDS BELOW 12,000 FEET WITH NO
       SIGNIFICANT WEATHER AND/OR OBSTRUCTIONS TO VISIBILITY.
       CURRENT SKY AND/OR WEATHER CONDITIONS ARE NOT AVAILABLE FOR
       CHILLICOTHE AND FARMINGTON.

MOZ001>031-035>038-043-044-053-054-040800-
...NORTHERN AND WESTERN MISSOURI...

CITY           SKY/WX    TMP DP  RH WIND       PRES   REMARKS
KANSAS CTY INT LGT RAIN  41  38  89 S8        30.08F FOG
KANSAS C DTWN  LGT RAIN  42  40  92 VRB5      30.09F
LEE`S SUMMIT   LGT RAIN  40  39  97 SE7       30.09F FOG
ST JOSEPH      LGT RAIN  39  38  96 CALM      30.09F
CHILLICOTHE      N/A     41  34  76 SE3       30.13F
KIRKSVILLE     CLOUDY    39  32  76 SE12      30.13F

$$
MOZ066>068-077>081-088>096-101>105-040800-
...SOUTHWEST MISSOURI...

CITY           SKY/WX    TMP DP  RH WIND       PRES   REMARKS
SPRINGFIELD    CLOUDY    39  36  89 SE14      30.06F
JOPLIN         LGT RAIN  40  40 100 E7        30.05F FOG
BRANSON        CLOUDY    37  37 100 SE10      30.06F FOG

$$
MOZ032>034-039>042-045>050-055>058-069>072-040800-
...CENTRAL MISSOURI...

CITY           SKY/WX    TMP DP  RH WIND       PRES   REMARKS
COLUMBIA       LGT RAIN  38  35  89 E6        30.13F
JEFFERSON CITY CLOUDY    40  35  83 E7        30.14F
ROLLA          MIX PCPN  36  35  96 SE7       30.10F
SEDALIA        LGT RAIN  41  35  79 SE9       30.12F
WHITEMAN AFB   LGT RAIN  41  41 100 S6        30.09F
WARRENSBURG    LGT RAIN  39  36  87 SE6       30.10F
OSAGE BEACH    LGT RAIN  38  35  89 SE8       30.11F

$$
MOZ051-052-059>065-040800-
...EAST CENTRAL MISSOURI...

CITY           SKY/WX    TMP DP  RH WIND       PRES   REMARKS
ST LOUIS INTL  CLOUDY    41  31  67 E10       30.17F
SPIRIT OF STL  CLOUDY    41  33  73 E6        30.16F
ST CHARLES     CLOUDY    40  35  83 E9        30.17F

$$
MOZ072>076-082>087-097>100-106>115-040800-
...SOUTH CENTRAL AND SOUTHEAST MISSOURI...

CITY           SKY/WX    TMP DP  RH WIND       PRES   REMARKS
CAPE GIRARDEAU CLOUDY    39  35  86 N6        30.19S
FARMINGTON     LGT RAIN  36  35  96 E5        30.16F
POPLAR BLUFF   CLOUDY    39  38  96 NE6       30.17S
WEST PLAINS    CLOUDY    37  35  92 E5        30.12F FOG

$$



USA.gov is the U.S. government's official web portal to all federal, state and local government web resources and services.